Wetbulb
54.38 54.20 53.46 52.92 52.61 51.62 47.68 42.21 44.92 51.16 47.04 41.43 35.29 36.82 40.98 46.12 44.13 44.78 44.58 44.74 44.99 45.17 46.27 44.29 43.81 45.47 48.51 51.26 50.00 46.20 45.03 42.53 42.33 46.85 48.47 48.54 46.05 44.99 42.18 40.64 39.92 36.94 37.29 39.68
53.67 53.69 53.13 52.59 51.98 51.78 47.52 39.63 42.40 52.37 48.22 40.07 38.25 40.27 43.75 44.34 43.80 43.93 44.04 44.07 47.79 46.73 45.08 41.94 45.23 47.42 50.33 51.05 49.22 49.34 47.51 41.79 38.99 42.58 44.62 47.28 45.51 45.68 43.55 41.55 39.62 38.97 38.80 41.00
53.59 53.63 53.26 52.67 52.35 52.04 47.91 44.02 45.04 47.63 45.52 41.93 41.44 40.93 44.01 44.12 47.85 45.89 45.85 45.27 45.24 43.83 42.83 42.21 43.65 45.11 49.78 52.29 53.01 59.45 52.31 41.31 41.95 39.87 43.04 44.53 44.08 46.63 46.57 44.34 40.52 40.47 41.93 44.85
53.59 53.73 53.20 52.78 52.20 52.08 46.34 45.93 44.60 44.98 42.39 44.25 45.10 43.96 44.46 45.26 45.59 46.94 45.45 43.68 44.37 44.46 40.96 41.58 41.57 47.15 48.95 51.67 54.97 49.78 46.22 41.62 40.23 43.18 45.53 45.54 45.92 47.41 47.53 44.32 43.60 43.87 43.53 47.00
53.16 53.29 53.46 53.05 52.01 51.23 47.07 44.73 44.10 45.30 42.46 44.42 43.85 42.30 42.81 45.55 46.94 45.40 45.34 44.61 48.76 43.87 41.91 44.15 46.04 48.20 47.41 46.21 49.30 46.29 45.59 42.85 43.05 41.80 47.78 48.38 48.14 49.74 50.90 50.23 49.05 47.98 47.55 47.58
53.10 53.20 53.24 52.88 51.74 49.29 41.93 43.46 46.01 45.15 42.33 43.11 43.47 43.67 46.10 47.69 48.18 49.33 49.44 51.23 49.78 48.12 50.73 51.26 50.22 50.54 49.50 49.96 47.57 46.03 44.55 42.70 40.73 38.91 43.93 44.64 42.28 45.97 50.33 52.33 52.86 49.94 44.27 49.81
53.44 53.43 52.91 52.56 52.17 51.45 47.69 43.21 43.88 42.36 39.87 42.59 44.78 47.03 48.17 48.04 47.53 46.03 51.62 50.90 48.82 51.96 52.65 50.96 48.59 47.12 47.08 48.02 47.12 47.15 43.05 41.77 40.61 38.47 40.28 35.79 44.23 54.37 55.05 52.94 54.15 54.52 54.34 55.59
53.54 53.68 53.46 52.93 52.53 52.47 48.88 44.35 43.96 41.61 37.62 41.75 43.74 45.75 45.63 45.69 46.04 46.71 47.97 50.67 50.44 49.23 49.12 45.09 42.39 42.73 44.50 46.15 47.34 45.65 44.05 41.25 38.92 38.56 37.10 39.49 46.86 52.37 50.50 50.05 49.17 56.11 53.30 54.74
53.34 53.62 53.34 53.28 52.72 52.39 48.55 45.56 45.41 44.37 39.97 39.03 46.53 44.02 44.09 41.65 40.97 44.34 47.15 50.51 49.74 48.82 44.69 43.65 37.75 38.43 40.41 41.35 44.96 44.52 42.59 41.46 42.03 36.55 36.18 36.31 43.00 52.27 56.04 54.00 45.33 55.43 55.34 54.58
53.51 53.11 53.20 53.31 53.21 52.38 50.20 46.12 45.65 45.35 41.84 43.45 44.15 42.43 42.38 44.52 42.32 41.26 43.28 46.71 47.80 47.47 41.88 39.96 38.76 39.05 42.79 40.09 38.89 40.69 42.18 42.16 39.13 37.90 37.94 44.23 51.01 54.40 55.49 43.78 44.68 54.76 56.76 55.38
53.63 53.69 53.65 53.53 53.28 52.65 49.93 46.47 46.56 45.80 42.84 44.85 48.32 48.23 44.54 45.29 42.88 40.81 43.57 44.34 44.81 45.15 41.18 38.81 38.97 38.58 40.93 41.33 42.01 43.08 41.82 41.16 41.78 40.75 39.44 39.32 52.67 52.14 47.84 50.69 52.40 55.23 54.85 56.64
53.56 53.58 53.99 53.45 53.05 52.96 51.39 42.34 47.00 48.29 44.09 45.05 48.76 51.34 52.42 50.82 49.92 45.33 43.11 43.13 42.19 45.76 43.72 43.18 42.86 43.22 40.74 39.52 39.40 43.88 41.02 44.58 44.65 45.56 44.87 50.90 52.59 51.59 52.45 53.47 50.99 52.02 52.21 55.19
52.72 53.05 53.15 53.01 52.39 52.49 51.65 47.32 43.48 43.98 43.02 45.39 46.08 48.54 52.29 51.99 52.68 52.35 44.01 42.70 45.60 43.18 47.49 43.96 42.17 39.75 40.56 38.03 40.00 41.13 44.15 46.78 47.15 45.57 48.45 48.35 50.41 51.06 51.94 51.76 51.97 53.14 53.19 55.09
52.18 52.76 52.96 52.66 52.39 52.41 51.75 47.16 43.75 43.26 42.53 41.16 45.78 54.02 51.06 53.60 51.99 52.02 52.30 46.60 45.09 45.86 45.94 41.99 40.71 41.31 43.44 40.71 42.72 42.31 45.45 45.25 45.31 44.66 46.91 48.76 50.69 50.97 51.90 53.26 54.46 56.15 57.48 56.94
52.46 52.66 52.31 52.25 52.19 51.51 50.28 48.94 48.43 46.54 44.85 41.68 43.81 49.64 51.81 51.24 51.48 52.16 51.26 46.54 45.08 44.81 44.15 42.16 42.09 42.87 44.12 43.25 42.92 42.30 45.98 45.34 44.46 43.70 47.77 47.35 48.15 50.94 53.55 53.78 54.86 56.84 57.87 56.30
52.41 52.32 51.98 51.76 51.71 51.50 45.82 46.92 47.80 49.02 47.26 44.70 42.30 47.64 49.30 52.45 51.16 50.49 47.85 47.96 46.87 46.23 44.89 43.70 44.84 46.63 44.99 40.51 39.40 46.47 48.66 49.24 49.50 48.69 49.36 50.26 51.93 53.51 54.91 55.12 57.03 57.26 56.92 55.27
52.09 51.97 51.61 51.37 51.36 49.32 42.69 47.59 49.54 49.54 47.60 45.49 42.75 43.69 49.75 51.83 49.57 49.34 49.11 48.92 48.12 47.80 45.72 44.87 44.72 45.16 45.32 41.40 40.04 48.90 49.58 49.50 51.33 51.69 51.20 49.80 51.73 51.08 53.89 57.27 58.82 58.17 58.27 57.72
52.06 51.92 51.90 51.63 51.42 50.09 46.31 48.38 50.59 48.90 45.55 47.71 41.79 43.30 44.97 50.36 46.49 46.24 48.48 47.07 46.55 46.17 45.74 45.68 45.00 44.75 44.11 41.57 44.19 48.54 50.69 50.91 51.09 51.13 50.80 50.97 51.39 52.64 53.76 55.83 57.60 56.40 55.67 54.68
51.70 52.12 51.30 48.65 46.14 46.93 50.41 55.23 52.86 51.36 49.25 44.24 44.30 41.63 41.67 49.54 47.14 47.86 48.60 47.26 43.98 46.38 44.50 43.75 45.82 42.28 41.77 44.21 47.95 50.18 50.37 50.19 50.15 50.78 51.09 51.36 52.56 52.74 52.98 54.18 55.16 53.11 53.99 54.65
51.56 49.55 48.42 47.79 49.23 53.57 54.39 49.98 46.77 47.46 47.08 45.24 41.37 44.57 42.48 45.69 46.42 46.55 45.92 47.51 45.94 42.13 44.17 46.04 42.69 42.36 45.81 48.19 50.12 50.92 51.08 50.79 50.94 49.80 48.02 49.44 49.66 51.82 52.20 52.65 54.45 54.78 54.56 54.81
45.92 42.83 43.65 46.74 51.00 47.77 47.22 44.83 43.38 44.74 43.24 45.00 45.16 44.25 40.26 45.70 45.19 44.64 46.80 45.55 43.89 40.76 43.46 43.32 40.33 42.41 47.08 49.57 49.18 49.61 49.48 49.91 49.55 50.19 50.55 51.17 51.19 51.95 52.51 53.20 54.57 54.97 54.54 53.98
45.84 46.86 49.33 46.83 45.84 43.90 42.39 43.51 45.31 45.44 43.48 46.69 45.64 46.85 45.09 45.98 48.28 44.97 45.74 46.45 45.55 40.72 45.61 44.11 42.64 47.55 48.44 48.74 49.90 50.30 49.85 51.17 51.17 51.25 51.44 52.31 52.35 53.00 53.24 53.56 53.73 53.75 54.02 54.14
49.23 47.53 45.85 44.69 44.26 36.22 40.62 38.34 40.00 41.34 46.73 50.99 51.08 48.62 49.99 48.53 47.64 44.85 44.57 42.52 41.29 45.92 41.77 41.94 44.57 48.17 49.88 50.06 51.10 51.13 52.09 52.59 52.57 52.35 52.87 53.34 52.88 53.97 53.80 53.95 54.50 53.85 53.18 53.74
46.26 45.31 37.01 42.45 42.82 42.10 41.51 43.01 44.14 48.71 51.98 51.13 50.38 49.62 49.65 50.74 47.92 47.54 41.94 44.22 45.02 40.97 40.86 42.31 46.34 48.35 49.63 50.33 51.91 51.70 50.80 51.51 51.39 51.15 52.18 53.09 52.99 52.70 53.82 54.20 53.61 52.83 52.11 53.14
45.63 44.37 37.42 40.96 45.33 47.99 49.23 49.53 49.32 51.92 51.09 47.95 46.33 45.26 47.96 44.95 47.52 47.21 45.99 42.79 40.45 42.19 42.56 44.82 48.19 49.21 50.68 49.95 50.17 50.11 50.68 51.53 51.61 52.32 52.38 52.72 53.29 52.75 52.47 52.96 52.63 51.91 52.04 52.28
46.41 44.47 40.63 43.57 42.19 44.20 46.09 46.30 46.94 50.54 49.97 51.71 49.90 43.40 42.24 43.25 45.74 43.76 42.20 41.91 40.56 43.57 48.29 50.95 51.70 51.43 50.82 50.89 50.87 51.67 52.47 52.16 51.71 51.62 51.88 52.09 51.64 50.67 50.67 51.07 50.83 50.19 50.48 51.49
44.56 41.35 43.86 43.67 42.93 42.11 43.61 47.38 48.62 52.83 49.69 44.92 47.47 44.16 43.17 44.64 43.46 43.63 44.52 42.86 45.58 49.65 52.02 53.21 52.88 51.78 50.16 50.15 51.88 52.76 52.95 51.87 50.75 50.69 50.90 50.48 50.79 50.07 49.66 48.61 48.73 49.97 50.94 51.12
MSLP
1019.76 1019.07 1018.21 1017.41 1016.52 1015.08 1013.85 1013.81 1012.26 1009.60 1009.55 1010.22 1011.33 1011.05 1009.63 1008.35 1007.13 1006.52 1006.09 1005.43 1004.94 1004.48 1004.07 1004.12 1003.83 1003.51 1002.93 1002.60 1002.94 1003.94 1004.71 1005.53 1005.38 1004.39 1003.43 1003.37 1003.76 1004.19 1005.55 1007.18 1008.24 1008.59 1008.41 1007.44
1019.92 1019.18 1018.39 1017.62 1016.83 1016.31 1015.87 1014.87 1013.10 1009.89 1009.61 1010.51 1011.11 1010.34 1009.34 1008.28 1007.32 1006.30 1005.90 1005.36 1004.50 1004.27 1004.04 1004.09 1003.68 1003.18 1002.76 1002.70 1002.91 1003.43 1004.40 1005.51 1005.83 1005.00 1004.27 1003.77 1003.69 1004.07 1004.91 1006.13 1007.35 1008.04 1008.41 1007.53
1020.01 1019.31 1018.57 1017.73 1016.81 1015.93 1015.75 1015.07 1013.71 1011.58 1010.68 1010.86 1010.65 1010.36 1009.37 1008.15 1006.74 1006.07 1005.36 1004.75 1004.22 1004.26 1004.07 1003.89 1003.79 1003.59 1003.11 1003.20 1003.35 1003.52 1004.00 1005.72 1005.98 1005.66 1004.75 1004.21 1004.03 1004.12 1004.47 1005.44 1007.08 1007.67 1007.45 1007.25
1020.04 1019.31 1018.61 1017.75 1016.84 1016.01 1015.86 1015.13 1014.58 1013.56 1012.22 1011.58 1011.05 1010.47 1009.53 1008.56 1007.69 1005.95 1005.13 1004.42 1004.02 1003.66 1004.11 1004.12 1004.14 1004.08 1004.00 1003.91 1004.05 1004.23 1004.99 1006.21 1006.16 1005.54 1004.82 1004.42 1004.11 1004.05 1004.37 1005.22 1006.02 1006.84 1006.95 1007.11
1020.08 1019.37 1018.70 1017.96 1017.04 1015.96 1015.71 1015.74 1015.37 1014.16 1013.19 1012.23 1011.31 1010.59 1009.44 1008.83 1007.53 1006.69 1005.06 1004.55 1003.47 1003.45 1003.63 1003.50 1004.14 1004.20 1004.31 1004.46 1004.82 1005.28 1005.95 1006.61 1006.70 1006.21 1005.27 1004.67 1004.22 1004.23 1004.82 1005.71 1006.56 1006.86 1007.08 1007.53
1020.13 1019.49 1018.86 1018.27 1017.60 1016.60 1016.80 1016.39 1015.72 1015.15 1013.99 1013.02 1012.08 1011.11 1010.20 1008.86 1007.91 1005.65 1004.70 1004.02 1003.71 1003.57 1003.53 1003.60 1003.84 1004.22 1004.40 1004.78 1005.23 1006.02 1006.56 1007.02 1007.53 1007.26 1006.31 1005.53 1005.09 1004.82 1005.45 1006.94 1007.57 1007.69 1008.03 1008.41
1020.06 1019.56 1019.07 1018.56 1018.17 1018.07 1018.22 1017.58 1017.02 1016.22 1014.97 1013.75 1012.49 1011.28 1010.46 1009.20 1008.19 1007.08 1005.02 1004.31 1003.82 1003.66 1003.43 1003.93 1004.40 1004.64 1004.83 1004.77 1005.08 1005.35 1006.67 1007.61 1008.01 1008.36 1007.39 1006.81 1006.17 1005.31 1006.02 1007.17 1008.49 1008.54 1008.61 1008.81
1020.03 1019.59 1019.12 1018.73 1018.37 1018.16 1018.03 1017.72 1017.49 1016.90 1015.84 1014.26 1012.72 1011.73 1010.85 1009.28 1008.24 1007.30 1006.19 1005.11 1004.82 1004.55 1004.51 1005.61 1005.97 1006.12 1005.79 1005.34 1005.13 1005.67 1006.48 1007.40 1008.43 1008.59 1008.18 1007.53 1006.90 1006.68 1006.59 1007.02 1009.22 1009.19 1009.19 1009.23
1019.99 1019.54 1019.13 1018.71 1018.35 1018.02 1017.78 1017.62 1017.36 1017.11 1016.42 1014.03 1012.89 1011.94 1011.06 1010.19 1009.27 1008.24 1006.99 1005.83 1005.24 1005.22 1006.12 1007.03 1007.81 1007.63 1007.03 1006.59 1005.69 1005.75 1006.50 1007.08 1007.85 1008.87 1008.37 1007.77 1006.58 1006.57 1006.89 1006.91 1009.05 1009.28 1009.48 1009.58
1019.92 1019.48 1019.07 1018.62 1018.27 1017.93 1017.82 1017.51 1017.28 1017.16 1016.62 1013.85 1012.87 1012.06 1011.16 1010.36 1009.94 1009.58 1008.74 1007.84 1006.73 1006.31 1007.71 1008.55 1008.80 1008.38 1007.54 1007.18 1006.65 1006.74 1007.24 1007.79 1008.16 1008.25 1008.16 1007.77 1006.99 1006.65 1006.82 1007.83 1009.29 1009.10 1009.49 1009.69
1019.68 1019.30 1018.91 1018.53 1018.17 1017.83 1017.69 1017.32 1017.01 1017.14 1016.61 1014.15 1012.55 1011.68 1010.94 1010.59 1010.40 1010.23 1009.31 1008.74 1008.46 1008.31 1008.85 1009.42 1009.34 1008.97 1008.07 1007.66 1007.01 1007.02 1007.70 1008.18 1008.64 1008.63 1008.69 1008.48 1007.21 1006.97 1007.36 1008.22 1008.50 1008.66 1008.89 1009.09
1019.54 1019.09 1018.70 1018.33 1018.10 1017.80 1017.59 1017.69 1016.91 1016.90 1016.91 1013.97 1012.10 1011.04 1010.25 1010.09 1009.89 1010.28 1010.08 1009.98 1009.61 1009.37 1009.62 1009.94 1009.84 1009.56 1008.76 1008.55 1008.23 1007.32 1007.68 1007.80 1008.51 1009.22 1009.21 1008.55 1007.98 1007.79 1007.83 1008.08 1008.37 1008.55 1008.75 1008.86
1019.28 1018.83 1018.48 1018.14 1017.89 1017.67 1017.55 1017.42 1017.32 1016.94 1016.34 1013.71 1011.92 1009.59 1008.52 1008.47 1008.57 1009.14 1010.05 1009.56 1009.08 1009.21 1009.35 1009.92 1010.13 1009.87 1009.20 1009.11 1008.51 1007.86 1007.50 1007.73 1008.91 1009.26 1009.42 1008.86 1008.56 1008.40 1008.20 1008.37 1008.42 1008.39 1008.42 1008.54
1019.05 1018.47 1018.05 1017.76 1017.46 1017.22 1017.10 1017.11 1017.18 1017.17 1016.70 1015.41 1011.07 1008.74 1008.08 1007.49 1007.67 1008.14 1008.25 1008.43 1008.72 1009.11 1009.40 1010.08 1010.26 1010.12 1009.21 1009.02 1008.52 1008.42 1007.86 1007.87 1008.94 1009.54 1009.53 1009.29 1008.91 1008.49 1008.38 1008.44 1008.42 1008.62 1008.64 1008.62
1018.68 1018.05 1017.57 1017.23 1016.97 1016.72 1016.51 1016.37 1016.22 1016.38 1016.62 1015.65 1012.43 1009.83 1007.59 1007.23 1007.43 1007.64 1008.04 1008.55 1009.05 1009.56 1010.09 1010.49 1010.43 1009.59 1009.46 1009.19 1008.90 1008.57 1007.89 1008.02 1008.47 1009.14 1008.86 1008.95 1009.12 1008.75 1008.74 1008.81 1008.89 1008.91 1008.96 1009.11
1018.11 1017.53 1017.02 1016.68 1016.46 1016.32 1016.32 1015.97 1015.70 1015.88 1016.04 1015.73 1013.65 1010.34 1008.34 1007.22 1006.79 1007.13 1007.84 1008.21 1008.85 1009.28 1009.78 1010.03 1009.63 1008.88 1008.93 1009.47 1009.40 1008.23 1007.85 1007.41 1007.20 1008.05 1008.50 1008.62 1008.89 1009.00 1008.98 1008.99 1009.07 1009.14 1009.29 1009.33
1017.32 1016.70 1016.19 1015.93 1015.89 1016.13 1015.95 1015.53 1015.26 1015.24 1015.59 1015.39 1014.01 1011.68 1008.70 1007.32 1006.93 1007.37 1007.62 1007.91 1008.32 1008.84 1009.53 1009.73 1009.37 1008.96 1008.81 1009.27 1009.26 1008.24 1007.89 1007.77 1007.54 1007.72 1008.28 1009.13 1009.08 1009.15 1009.19 1009.15 1009.22 1009.31 1009.28 1009.52
1016.45 1015.75 1015.11 1014.94 1015.19 1015.51 1014.94 1013.93 1013.93 1015.10 1015.32 1014.93 1014.31 1012.12 1009.92 1007.62 1007.79 1007.99 1007.82 1008.19 1008.59 1008.73 1008.98 1009.19 1009.11 1008.92 1008.92 1009.07 1008.26 1008.07 1008.05 1008.13 1008.08 1008.10 1008.05 1008.48 1008.88 1009.27 1009.44 1009.18 1009.27 1009.52 1009.78 1009.76
1015.69 1015.04 1014.70 1014.86 1015.09 1014.99 1014.46 1013.92 1013.90 1014.12 1014.67 1014.60 1014.23 1013.02 1010.90 1008.64 1008.56 1008.26 1008.16 1008.29 1008.87 1008.90 1008.85 1008.83 1008.86 1008.99 1008.74 1007.87 1007.73 1007.92 1007.80 1007.76 1008.17 1008.33 1008.58 1008.93 1009.04 1009.10 1009.06 1009.14 1009.38 1009.46 1009.42 1009.43
1015.00 1014.84 1015.02 1015.03 1014.69 1014.30 1013.99 1013.96 1014.04 1014.00 1014.03 1014.28 1013.92 1012.70 1011.48 1010.08 1009.44 1008.88 1008.98 1008.69 1008.66 1008.87 1008.45 1008.37 1008.56 1008.51 1007.68 1007.28 1007.22 1007.28 1007.52 1007.53 1007.84 1008.28 1008.87 1009.06 1009.14 1009.13 1009.14 1009.24 1009.34 1009.51 1009.53 1009.39
1015.82 1016.26 1016.17 1015.44 1014.46 1014.16 1014.11 1014.03 1014.04 1013.82 1013.79 1013.36 1012.56 1012.09 1011.56 1009.99 1009.89 1009.44 1009.18 1008.97 1008.95 1008.91 1008.56 1008.54 1008.74 1008.44 1007.89 1007.42 1007.58 1007.73 1007.79 1007.83 1007.86 1007.81 1007.99 1008.17 1008.34 1008.69 1008.93 1009.15 1009.34 1009.45 1009.32 1009.20
1017.40 1017.42 1016.84 1016.23 1015.10 1014.39 1014.17 1013.47 1013.14 1012.87 1012.35 1011.89 1011.64 1011.21 1011.06 1010.24 1009.73 1009.55 1009.25 1009.09 1008.99 1008.70 1008.47 1008.69 1008.74 1008.21 1007.99 1007.98 1008.18 1008.20 1008.14 1008.16 1008.20 1008.04 1008.09 1008.21 1008.37 1008.50 1008.87 1009.19 1009.27 1009.22 1009.11 1008.98
1016.99 1016.92 1016.49 1015.97 1014.90 1014.27 1013.50 1012.69 1012.07 1011.78 1011.10 1010.98 1010.88 1010.91 1010.68 1010.13 1009.72 1009.68 1009.52 1009.26 1009.14 1008.50 1008.60 1008.54 1008.51 1008.33 1008.56 1008.72 1008.66 1008.66 1008.39 1008.23 1008.23 1008.37 1008.27 1008.23 1008.40 1008.68 1008.92 1009.07 1008.99 1009.06 1009.06 1008.88
1016.94 1016.42 1016.10 1015.15 1013.94 1013.06 1012.20 1011.76 1011.20 1010.74 1010.61 1010.74 1010.75 1010.96 1010.89 1011.09 1010.39 1010.21 1009.75 1009.25 1009.05 1008.96 1008.86 1008.32 1008.15 1008.07 1008.46 1008.78 1008.73 1008.95 1008.79 1008.70 1008.70 1008.59 1008.54 1008.58 1008.69 1008.77 1008.84 1008.99 1009.06 1009.21 1009.10 1008.84
1016.80 1016.14 1015.37 1014.14 1012.99 1012.21 1011.65 1011.16 1010.74 1010.66 1010.90 1011.03 1011.15 1011.48 1011.53 1011.49 1011.06 1010.60 1009.87 1009.46 1009.09 1008.68 1008.16 1007.88 1007.88 1008.47 1008.81 1008.91 1008.87 1008.84 1008.86 1008.85 1008.82 1008.78 1008.81 1008.82 1008.87 1009.04 1009.11 1009.07 1009.19 1009.29 1009.27 1009.07
1016.28 1015.44 1014.59 1013.60 1013.21 1012.49 1011.87 1011.45 1011.13 1010.95 1011.11 1011.11 1011.31 1011.97 1011.75 1011.35 1011.03 1010.40 1009.67 1009.23 1008.73 1008.37 1007.88 1008.09 1008.38 1008.62 1008.70 1008.78 1008.89 1008.95 1008.99 1009.11 1009.15 1009.10 1009.13 1009.14 1009.20 1009.35 1009.37 1009.30 1009.35 1009.57 1009.47 1009.31
1015.26 1014.40 1013.71 1013.58 1013.26 1012.82 1012.35 1011.81 1011.36 1010.90 1010.86 1011.45 1011.75 1011.80 1011.36 1011.42 1011.15 1010.23 1009.29 1009.17 1008.73 1008.51 1008.09 1007.83 1008.15 1008.71 1008.82 1008.86 1008.99 1009.10 1009.22 1009.35 1009.51 1009.57 1009.53 1009.50 1009.51 1009.54 1009.46 1009.53 1009.53 1009.49 1009.28 1009.25
Wind_Speed
22 23 25 26 26 30 8 4 2 3 2 6 1 3 6 3 3 2 4 3 8 6 7 6 5 5 4 5 2 6 7 6 7 14 6 3 4 5 5 6 6 2 4 6
22 23 25 26 24 21 4 2 3 4 4 2 2 5 4 3 4 5 4 4 5 1 6 4 3 1 3 5 4 0 6 0 3 9 8 5 3 2 5 5 3 3 5 6
20 22 24 26 25 26 3 2 3 5 4 0 4 3 7 5 4 7 6 8 6 4 5 2 6 3 1 5 5 7 7 3 7 8 8 4 3 2 2 6 4 3 6 5
19 20 22 25 26 25 1 2 1 2 3 2 2 2 4 6 5 5 2 4 7 9 7 5 4 1 2 4 8 4 5 2 2 5 6 3 4 6 2 5 5 5 3 7
19 20 20 22 25 20 3 2 3 5 2 4 3 4 1 5 3 5 7 6 8 6 6 9 8 6 2 3 5 3 3 3 1 3 0 4 4 4 6 6 3 5 5 3
19 19 19 19 20 13 3 3 3 3 3 4 2 3 3 6 8 8 10 6 5 5 6 6 6 4 4 7 7 2 1 5 3 4 4 4 4 2 8 7 5 1 4 1
19 18 18 18 15 9 2 3 1 3 4 1 3 4 5 8 6 5 6 5 4 1 5 3 5 4 1 5 6 7 7 6 4 4 3 3 5 7 16 17 7 7 7 4
18 17 18 17 15 9 3 2 1 2 3 3 6 4 6 9 6 5 4 5 3 5 6 5 6 6 7 5 2 4 5 6 3 6 6 1 4 5 3 5 2 3 4 4
18 17 18 16 15 10 1 2 2 1 2 5 2 3 3 3 4 7 5 6 6 6 4 4 4 4 4 5 8 5 5 3 6 3 7 10 5 2 6 6 3 3 2 1
17 18 17 17 15 11 3 4 2 1 2 6 2 4 3 2 1 3 4 9 9 4 3 3 3 4 3 3 3 5 5 4 4 3 4 2 3 7 5 5 7 4 6 6
16 17 16 16 15 14 6 5 2 1 2 8 6 4 3 3 1 1 5 5 5 5 5 3 3 3 4 1 4 2 3 2 1 2 5 1 5 3 7 6 2 3 4 5
18 18 16 16 14 12 8 3 3 2 4 8 4 9 12 9 10 3 2 4 2 4 4 0 2 2 1 3 3 2 3 5 5 2 5 6 4 6 1 4 3 2 3 6
17 17 18 16 14 11 4 4 3 2 2 7 3 7 6 8 16 9 4 3 3 1 4 4 2 1 3 2 4 2 2 3 6 5 4 2 4 3 4 4 4 2 2 4
19 18 19 18 15 11 5 3 2 1 1 2 9 4 7 3 7 15 14 3 3 4 3 2 2 1 3 4 3 3 4 4 6 2 2 1 4 2 4 5 5 5 3 6
21 20 19 18 15 13 7 4 4 4 3 3 7 12 7 4 8 13 10 4 2 1 1 2 3 2 2 1 3 2 1 7 5 7 7 6 3 2 2 5 2 3 5 2
22 22 20 18 13 8 1 2 3 5 4 0 5 6 7 6 1 9 8 6 3 3 4 4 3 4 4 2 2 5 4 3 7 6 5 6 7 4 3 5 4 3 5 1
24 23 22 17 9 3 3 2 0 7 3 1 6 6 6 4 2 2 2 2 2 4 2 3 3 2 4 3 3 6 3 1 6 8 9 5 4 4 4 6 5 3 2 3
26 24 19 8 4 4 4 3 11 6 1 1 2 6 6 4 1 1 1 3 1 1 3 1 2 1 3 2 5 6 5 4 5 6 4 7 6 5 6 5 5 4 4 5
27 20 4 4 2 1 3 3 11 2 3 2 1 2 5 6 2 1 3 2 1 1 3 4 4 1 4 7 9 10 9 7 9 6 7 7 8 7 6 6 4 1 4 5
21 1 2 2 1 12 3 3 2 3 2 1 3 1 5 2 3 3 1 1 2 2 5 2 2 5 3 4 3 6 6 8 8 7 5 5 4 6 5 5 4 4 5 6
5 5 3 4 13 2 2 1 2 1 2 3 5 5 3 3 1 3 1 2 1 1 5 4 2 4 3 5 7 5 6 6 4 5 4 7 7 7 6 4 5 4 5 5
3 4 4 3 3 2 0 3 2 4 5 3 3 4 5 4 1 1 3 1 1 4 0 1 2 3 1 5 6 5 5 6 6 4 5 6 6 6 6 5 4 4 5 6
1 2 2 1 2 1 4 3 2 2 2 2 1 1 0 5 3 2 2 2 5 2 1 4 5 3 4 5 4 3 3 5 5 4 2 4 4 6 5 5 4 4 5 5
2 1 6 4 4 4 4 3 3 3 0 2 2 2 3 3 5 2 1 3 1 1 3 5 4 8 7 5 3 4 3 4 3 2 2 4 5 4 4 4 3 3 4 6
3 1 5 5 3 3 1 2 1 2 2 1 3 3 1 1 1 3 2 2 3 4 4 3 3 5 5 5 3 4 4 2 1 2 1 4 4 4 5 5 4 2 4 4
3 5 3 4 1 2 3 3 3 1 3 1 4 2 2 1 2 2 5 2 3 3 3 1 3 4 5 4 5 4 3 2 1 2 3 4 4 3 5 4 1 3 4 4
4 5 3 3 3 5 4 2 3 2 3 3 3 3 5 2 2 4 1 2 3 4 2 3 7 6 5 5 5 4 4 4 3 3 4 3 3 3 3 2 2 4 4 2
Wind_Direction
347 346 348 347 346 346 31 345 18 335 34 61 44 172 201 256 281 26 292 211 215 218 196 200 181 191 174 324 181 139 201 155 237 242 254 274 204 151 130 113 277 168 156 278
347 347 347 346 344 350 321 25 271 323 59 131 286 284 283 242 264 245 224 255 214 275 193 150 177 276 122 332 24 321 185 4 42 347 356 3 129 149 124 105 78 197 126 259
347 348 349 347 345 346 149 64 24 330 55 104 122 12 291 274 268 256 198 239 206 168 197 305 174 176 9 360 42 46 79 119 151 182 215 178 269 305 179 129 116 191 219 168
347 349 351 350 348 345 46 28 322 187 271 307 13 124 306 291 295 261 262 294 224 186 197 159 181 211 336 38 340 48 90 115 197 254 252 191 238 243 207 164 172 149 226 158
348 351 354 353 352 347 38 43 31 349 290 318 352 74 261 277 290 234 264 217 265 194 183 185 187 142 169 192 0 83 355 198 120 301 262 232 214 172 114 65 62 120 161 83
350 352 354 360 358 2 31 328 328 107 304 357 49 225 308 282 322 263 236 262 119 103 183 175 174 181 174 164 151 187 98 125 75 271 351 349 334 349 109 97 21 139 124 320
351 352 354 359 3 29 310 266 21 51 276 298 217 303 311 277 285 250 323 24 80 314 92 87 56 47 354 197 199 163 159 132 131 218 30 231 280 70 110 99 60 48 70 56
347 350 352 356 355 359 327 277 113 101 283 238 289 292 260 296 301 332 297 324 301 320 49 61 27 344 7 321 297 280 174 129 180 163 179 241 156 201 199 123 35 353 94 51
346 346 348 352 353 355 19 261 197 125 104 254 341 302 291 302 322 333 304 315 311 64 81 80 136 202 222 293 326 83 78 127 145 143 158 194 229 86 352 140 102 162 137 175
341 343 344 347 349 351 336 271 208 115 219 266 202 224 270 303 350 256 306 330 346 37 80 94 155 232 212 231 219 307 333 8 183 148 118 297 327 309 322 159 200 170 176 189
338 337 337 339 345 353 359 277 223 121 250 274 222 237 240 341 106 148 292 13 334 21 62 122 207 172 236 3 254 211 186 133 48 87 91 125 359 17 108 201 186 171 194 205
336 333 332 335 338 343 6 294 334 5 193 252 249 230 233 209 222 122 309 206 246 216 83 247 118 248 36 125 272 343 4 176 146 117 176 228 316 106 143 133 134 182 191 218
329 331 330 327 326 327 321 280 282 338 291 297 325 239 250 219 224 192 170 278 213 23 170 161 189 268 125 150 247 316 352 128 109 72 287 155 99 106 136 173 168 211 227 156
324 324 321 318 319 315 285 229 212 112 247 292 281 308 300 186 160 185 205 199 15 91 72 101 136 195 160 211 207 172 216 67 129 70 197 24 19 50 52 51 53 82 119 178
317 318 319 317 313 311 286 239 230 216 122 260 283 309 265 257 176 188 198 184 141 135 56 84 237 239 113 352 71 275 177 168 139 202 194 140 203 319 90 89 69 158 165 229
315 313 313 311 309 315 286 321 193 198 183 284 309 292 294 320 232 161 174 175 152 127 150 213 255 251 103 112 185 264 276 182 160 161 157 139 155 167 176 127 150 162 190 222
312 310 308 301 289 200 185 203 6 141 139 188 308 313 276 294 109 52 99 89 144 134 161 210 205 275 97 119 170 235 252 234 108 127 117 93 176 159 146 154 155 138 94 251
313 312 305 279 230 235 304 254 216 177 286 116 286 275 331 338 347 236 84 125 51 326 193 58 201 28 89 240 245 175 171 141 102 131 128 140 131 137 141 141 140 138 212 242
315 320 120 106 62 35 290 72 129 166 143 233 224 258 273 352 352 286 18 88 124 277 193 230 112 249 217 222 177 175 185 175 160 138 120 142 143 149 135 124 141 164 293 294
313 95 4 9 156 320 319 9 26 17 329 62 232 246 270 30 1 318 10 33 210 179 244 77 128 241 261 247 174 157 159 142 142 118 134 142 159 170 169 173 190 212 243 270
20 12 328 298 307 42 45 258 180 163 251 206 235 197 244 287 180 253 176 198 259 95 261 140 235 272 251 143 123 131 129 132 124 143 179 184 177 183 184 197 210 228 277 281
262 293 289 296 336 40 136 239 178 196 231 209 199 227 199 280 135 104 336 307 46 242 279 82 241 265 99 118 121 131 138 124 123 136 165 211 201 192 182 200 230 251 283 307
205 220 261 84 259 58 209 241 279 272 235 231 284 323 105 337 43 42 43 47 244 337 344 229 220 194 143 149 141 128 127 115 111 127 89 142 178 182 188 215 243 278 308 316
296 277 306 191 218 237 204 246 235 271 262 181 101 23 75 344 359 15 267 253 70 281 264 242 209 192 169 179 164 155 157 128 129 124 255 195 187 212 233 232 251 289 317 319
270 277 244 237 260 276 310 332 322 29 75 42 55 36 100 251 163 246 323 260 244 223 240 246 167 157 158 174 174 147 143 139 53 340 222 252 253 242 256 271 268 304 329 316
236 238 267 255 296 309 347 353 334 325 172 51 74 1 27 290 304 280 226 228 223 268 255 325 116 177 168 156 141 143 140 119 29 342 306 292 278 274 267 293 302 23 313 319
235 252 226 241 252 223 235 288 267 268 98 202 120 232 234 164 191 257 271 245 280 341 294 182 148 179 167 146 138 131 87 51 15 353 347 339 2 22 21 348 325 301 283 195